This demonstration page uses our WeatherBlox Daily Observations layout. Learn more.

Hourly Observations for June 12, 2018

Temp ( °F °C ) Dew Point ( °F °C ) Humidity (%) Winds ( mph kmh ) Pressure ( in mb ) Visibility ( mi km ) Precip ( " mm )
12:15 am 00:15 Clear 61 16.3 60 15.5 95 95 N 6 9 29.85 1011 10 16.0934 0 0
12:35 am 00:35 Clear 61 16.3 60 15.6 96 96 NNE 6 9 29.85 1011 10 16.0934 0 0
12:55 am 00:55 Clear 62 16.7 60 15.8 94 94 NNE 5 7 29.88 1012 10 16.0934 0 0
1:15 am 01:15 Clear 61 16.2 59 15.2 94 94 NNE 7 11 29.88 1012 10 16.0934 0 0
1:35 am 01:35 Clear 61 16.1 60 15.6 97 97 N 6 9 29.88 1012 10 16.0934 0 0
1:55 am 01:55 Clear 61 16.3 60 15.6 96 96 Calm 29.88 1012 10 16.0934 0 0
2:35 am 02:35 Clear 58 14.4 57 13.9 97 97 WNW 3 6 29.91 1013 10 16.0934 0 0
3:15 am 03:15 Clear 59 15.2 59 15 99 99 W 5 7 29.91 1013 10 16.0934 0 0
3:35 am 03:35 Clear 60 15.5 59 15.1 97 97 NW 6 9 29.88 1012 10 16.0934 0 0
3:55 am 03:55 Clear 58 14.7 58 14.4 98 98 W 3 6 29.91 1013 10 16.0934 0 0
4:15 am 04:15 Clear 58 14.6 58 14.4 99 99 NW 3 6 29.91 1013 10 16.0934 0 0
4:35 am 04:35 Clear 57 14 57 13.8 99 99 NNW 5 7 29.91 1013 10 16.0934 0 0
4:55 am 04:55 Clear 57 13.9 57 13.9 100 100 N 6 9 29.91 1013 10 16.0934 0 0
5:15 am 05:15 Clear 57 14 57 14 100 100 N 6 9 29.88 1012 10 16.0934 0 0
5:35 am 05:35 Clear 58 14.7 58 14.7 100 100 N 6 9 29.88 1012 10 16.0934 0 0
5:55 am 05:55 Clear 58 14.5 58 14.5 100 100 NE 5 7 29.91 1013 10 16.0934 0 0
6:15 am 06:15 Sunny with Mist and Fog 57 14 57 14 100 100 Calm 29.91 1013 5 8.0467 0 0
6:35 am 06:35 Sunny 58 14.7 58 14.7 100 100 Calm 29.91 1013 10 16.0934 0 0
6:55 am 06:55 Sunny 59 14.8 59 14.8 100 100 NNE 3 6 29.91 1013 7 11.26538 0 0
7:15 am 07:15 Sunny 60 15.5 60 15.4 99 99 E 3 6 29.94 1014 10 16.0934 0 0
7:35 am 07:35 Sunny 62 16.8 62 16.5 98 98 E 7 11 29.91 1013 10 16.0934 0 0
7:55 am 07:55 Sunny 64 17.9 63 17.2 96 96 E 7 11 29.91 1013 10 16.0934 0 0
8:15 am 08:15 Sunny 66 18.9 64 17.9 94 94 E 7 11 29.91 1013 10 16.0934 0 0
8:35 am 08:35 Sunny 68 20 65 18.3 90 90 ENE 9 15 29.88 1012 10 16.0934 0 0
8:55 am 08:55 Sunny 69 20.7 65 18.1 85 85 NE 6 9 29.88 1012 10 16.0934 0 0
9:15 am 09:15 Sunny 70 21.1 65 18.2 84 84 N 5 7 29.88 1012 10 16.0934 0 0
9:35 am 09:35 Sunny 72 22 64 18 78 78 Calm 29.91 1013 10 16.0934 0 0
9:55 am 09:55 Sunny 73 22.8 64 17.6 73 73 N 3 6 29.91 1013 10 16.0934 0 0
10:15 am 10:15 Sunny 74 23.6 64 17.8 70 70 N 5 7 29.88 1012 10 16.0934 0 0
10:35 am 10:35 Sunny 75 23.9 63 17.4 67 67 N 5 7 29.88 1012 10 16.0934 0 0
10:55 am 10:55 Sunny 76 24.3 64 17.5 66 66 N 6 9 29.88 1012 10 16.0934 0 0
11:15 am 11:15 Sunny 76 24.7 63 17 62 62 NW 9 15 29.91 1013 10 16.0934 0 0
11:35 am 11:35 Sunny 77 24.8 63 17.2 63 63 N 8 13 29.88 1012 10 16.0934 0 0
11:55 am 11:55 Sunny 77 25.2 62 16.9 60 60 NW 8 13 29.88 1012 10 16.0934 0 0
12:15 pm 12:15 Sunny 78 25.8 62 16.5 57 57 NNW 10 17 29.88 1012 10 16.0934 0 0
12:35 pm 12:35 Sunny 78 25.8 61 16.3 56 56 N 10 17 29.88 1012 10 16.0934 0 0
12:55 pm 12:55 Sunny 80 26.9 61 15.9 51 51 NNW 6 9 29.85 1011 10 16.0934 0 0
1:15 pm 13:15 Sunny 80 26.6 60 15.7 51 51 NW 7 11 29.88 1012 10 16.0934 0 0
1:35 pm 13:35 Sunny 81 27 61 15.9 51 51 NW 5 7 29.85 1011 10 16.0934 0 0
1:55 pm 13:55 Sunny 81 27.2 61 16.1 51 51 NE 5 7 29.85 1011 10 16.0934 0 0
2:15 pm 14:15 Sunny 81 27.4 60 15.5 48 48 N 8 13 29.85 1011 10 16.0934 0 0
2:35 pm 14:35 Sunny 82 27.5 60 15.7 49 49 NNE 3 6 29.85 1011 10 16.0934 0 0
2:55 pm 14:55 Sunny 82 27.7 60 15.3 47 47 NNW 5 7 29.85 1011 10 16.0934 0 0
3:15 pm 15:15 Sunny 82 28 59 14.9 45 45 N 6 9 29.85 1011 10 16.0934 0 0
3:35 pm 15:35 Sunny 82 28 60 15.4 46 46 NE 6 9 29.85 1011 10 16.0934 0 0
3:55 pm 15:55 Sunny 82 27.8 59 14.9 45 45 Calm 29.83 1010 10 16.0934 0 0
4:15 pm 16:15 Sunny 83 28.6 60 15.3 44 44 NNE 7 11 29.83 1010 10 16.0934 0 0
4:35 pm 16:35 Sunny 83 28.5 58 14.2 42 42 Calm 29.83 1010 10 16.0934 0 0
4:55 pm 16:55 Sunny 84 28.8 58 14.4 41 41 Calm 29.83 1010 10 16.0934 0 0
5:15 pm 17:15 Sunny 83 28.6 59 15.1 44 44 NE 6 9 29.83 1010 10 16.0934 0 0
5:35 pm 17:35 Sunny 84 28.7 59 15.1 44 44 ENE 6 9 29.83 1010 10 16.0934 0 0
5:55 pm 17:55 Sunny 84 28.9 59 15 43 43 NNE 6 9 29.83 1010 10 16.0934 0 0
6:15 pm 18:15 Sunny 83 28.5 63 17.3 51 51 N 7 11 29.83 1010 10 16.0934 0 0
6:35 pm 18:35 Sunny 83 28.5 63 17 50 50 E 6 9 29.83 1010 10 16.0934 0 0
6:55 pm 18:55 Sunny 83 28.4 63 17 50 50 NNE 8 13 29.83 1010 10 16.0934 0 0
7:15 pm 19:15 Sunny 82 28 63 17 51 51 NNE 9 15 29.8 1009 10 16.0934 0 0
7:35 pm 19:35 Sunny 82 27.6 63 17.3 53 53 NNE 10 17 29.8 1009 10 16.0934 0 0
7:55 pm 19:55 Sunny 81 27 64 17.7 57 57 NE 8 13 29.8 1009 10 16.0934 0 0
8:15 pm 20:15 Sunny 80 26.4 63 17.3 57 57 NE 9 15 29.85 1011 10 16.0934 0 0
8:35 pm 20:35 Sunny 78 25.6 63 17.2 60 60 ENE 12 19 29.85 1011 10 16.0934 0 0
8:55 pm 20:55 Sunny 76 24.5 63 17.3 64 64 E 9 15 29.85 1011 10 16.0934 0 0
9:15 pm 21:15 Clear 74 23.3 64 17.5 70 70 ENE 7 11 29.88 1012 10 16.0934 0 0
9:35 pm 21:35 Clear 73 22.7 64 17.5 73 73 ENE 10 17 29.91 1013 10 16.0934 0 0
9:55 pm 21:55 Clear 72 22.2 64 17.5 75 75 ENE 9 15 29.94 1014 10 16.0934 0 0
10:15 pm 22:15 Clear 71 21.5 64 17.6 79 79 ENE 9 15 29.97 1015 10 16.0934 0 0
10:35 pm 22:35 Clear 70 21.3 64 17.5 79 79 NE 12 19 29.97 1015 10 16.0934 0 0
10:55 pm 22:55 Clear 70 21.1 63 17.1 78 78 NE 12 19 29.97 1015 10 16.0934 0 0
11:15 pm 23:15 Clear 69 20.6 63 17 80 80 ENE 9 15 29.97 1015 10 16.0934 0 0
11:35 pm 23:35 Clear 68 20 63 17 83 83 ENE 7 11 30 1016 10 16.0934 0 0
11:55 pm 23:55 Clear 67 19.6 62 16.7 83 83 ENE 8 13 30 1016 10 16.0934 0 0

Powered by AerisWeather